User: anonymous   Login
Location: Unspecified
(0.0000°N, 0.0000°E)
Time: 08:15:16
(UTC+01:00)
Language:

Orbus 21S - Orbit

View from above orbital plane
View from above orbital plane
View from above satellite
View from above satellite

Ground track
Ground track

The orbit data is extracted from the following two-line orbital elements,

1 20669U 90056C   14351.45270127  .00001318  00000-0  80843-3 0  4292
2 20669 024.0561 107.1313 7127438 088.8085 356.7554 02.44849870204870
Epoch (UTC): 17 December 2014 10:51:53
Eccentricity: 0.7127438
inclination: 24.0561°
perigee height: 301 km
apogee height: 33447 km
right ascension of ascending node: 107.1313°
argument of perigee: 88.8085°
revolutions per day: 2.44849870
mean anomaly at epoch: 356.7554°
orbit number at epoch: 20487

The dashed part of the orbit path shows where the satellite is in the earth's shadow,  

DLR